Location: Amsterdam
(30.7274°N, 84.4357°W)
Time: 20:36:16
(UTC+00:00)

Tiros 1 despin weight - Pass Details

Date: 21 February 2026
Orbit: 556 x 593 km, 48.2° (Epoch: 3 March)

Event Time Altitude Azimuth Distance (km) Brightness Sun altitude
Rises 20:18:43 0° 285° (WNW) 2,745 ? 35.8°
Reaches altitude 10° 20:22:24 10° 317° (NW) 1,843 ? 35.2°
Maximum altitude 20:23:59 12° 340° (NNW) 1,723 ? 35.0°
Drops below altitude 10° 20:25:36 10° 3° (N) 1,840 ? 34.7°
Sets 20:29:15 0° 35° (NE) 2,733 ? 34.1°
